Torna al catalogo

STARLINK-5940

AttivoComunicazioniVLEO
NORAD 56012·PAYLOAD·🇺🇸 United States

Lanciato Mar 24, 2023 da Cape Canaveral Space Force Station

Loading…

Prossimi Passaggi (prossime 24 ore)

TLE

AggiornatoSource: CelesTrak SupGP

Epoca: Sep 15, 2026, 03:08 UTC

1 56012C 23042AC  26258.13104167 -.00039270  00000+0 -14224-2 0  2586
2 56012  43.0017  55.0083 0001491 268.7393  42.3008 15.27596060    14

Traccia STARLINK-5940 in tempo reale con AllMySat

Download on the App Store